Weather History for Newburgh, NY

Change the Weather History Date:

Friday, January 4, 2013

  Actual Average Record
Temperature  
Mean Temperature 30 °F -  
Max Temperature 35 °F 35 °F 62 °F (2000)
Min Temperature 26 °F 21 °F -15 °F (1981)
Degree Days  
Heating Degree Days 34    
Moisture  
Dew Point 21 °F    
Average Humidity 66    
Maximum Humidity 74    
Minimum Humidity 56    
Precipitation  
Precipitation 0.00 in - - ()
Sea Level Pressure  
Sea Level Pressure 29.97 in    
Wind  
Wind Speed 11 mph (West)    
Max Wind Speed 17 mph    
Max Gust Speed 28 mph    
Visibility 14 miles    
Events      
Averages and records for this station are not official NWS values.
T = Trace of Precipitation, MM = Missing Value Source: NWS Daily Summary

Daily Weather History Graph

Daily Weather History Graph

Search for Another Location

Airport:

Trip Planner

Search our weather history database for the weather conditions in past years. The results will help you decide how hot, cold, wet, or windy it might be!

Date:

Astronomy

Jan. 04, 2013 Rise Set
Actual Time 7:23 AM EST 4:40 PM EST
Civil Twilight 6:51 AM EST 5:11 PM EST
Nautical Twilight 6:17 AM EST 5:46 PM EST
Astronomical Twilight 5:43 AM EST 6:19 PM EST
Moon No Moon Rise 10:58 AM EST (1/4)
Length of Visible Light 10h 19m
Length of Day
9h 17m
Waning Gibbous, 55% of the Moon is Illuminated
Jan 4
Waning Gibbous
Jan 4
Last Quarter
Jan 11
New
Jan 18
First Quarter
Jan 26
Full

Hourly Weather History & Observations

Time (EST) Temp. Windchill Dew Point Humidity Pressure Visibility Wind Dir Wind Speed Gust Speed Precip Events Conditions
1:45 AM 28.4 °F 19.7 °F 19.4 °F 69% 30.02 in 10.0 mi WSW 9.2 mph - N/A   Overcast
2:45 AM 30.2 °F 20.8 °F 21.2 °F 69% 30.02 in 10.0 mi West 11.5 mph - N/A   Overcast
3:45 AM 30.2 °F 20.8 °F 21.2 °F 69% 30.02 in 10.0 mi West 11.5 mph - N/A   Overcast
4:45 AM 28.4 °F 21.2 °F 21.2 °F 74% 30.02 in 10.0 mi West 6.9 mph - N/A   Overcast
5:45 AM 28.4 °F 20.4 °F 21.2 °F 74% 30.02 in 10.0 mi WSW 8.1 mph - N/A   Overcast
8:45 AM 32.0 °F 24.8 °F 23.0 °F 69% 30.03 in 15.0 mi WSW 8.1 mph - N/A   Overcast
9:45 AM 32.0 °F 24.2 °F 23.0 °F 69% 30.02 in 15.0 mi WSW 9.2 mph - N/A   Overcast
10:45 AM 33.8 °F 24.3 °F 23.0 °F 65% 30.01 in 15.0 mi West 13.8 mph 20.7 mph N/A   Overcast
11:45 AM 33.8 °F 23.2 °F 23.0 °F 65% 29.97 in 15.0 mi West 17.3 mph 23.0 mph N/A   Mostly Cloudy
12:50 PM 33.8 °F 23.2 °F 21.2 °F 60% 29.93 in 20.0 mi West 17.3 mph 25.3 mph N/A   Scattered Clouds
1:45 PM 35.6 °F 25.9 °F 21.2 °F 56% 29.91 in 20.0 mi West 16.1 mph 27.6 mph N/A   Partly Cloudy
3:45 PM 35.6 °F 27.1 °F 21.2 °F 56% 29.91 in 20.0 mi West 12.7 mph 23.0 mph N/A   Partly Cloudy
4:45 PM 33.8 °F 25.3 °F 21.2 °F 60% 29.91 in 20.0 mi West 11.5 mph - N/A   Partly Cloudy
5:45 PM 33.8 °F 25.3 °F 19.4 °F 56% 29.92 in 10.0 mi West 11.5 mph - N/A   Clear
6:45 PM 32.0 °F 23.0 °F 19.4 °F 60% 29.93 in 10.0 mi West 11.5 mph - N/A   Clear
7:45 PM 30.2 °F 20.8 °F 19.4 °F 64% 29.94 in 10.0 mi West 11.5 mph - N/A   Clear
8:45 PM 30.2 °F 20.8 °F 21.2 °F 69% 29.94 in 10.0 mi West 11.5 mph - N/A   Clear
9:45 PM 26.6 °F 16.2 °F 19.4 °F 74% 29.96 in 10.0 mi West 11.5 mph - N/A   Clear
10:45 PM 26.6 °F 16.2 °F 19.4 °F 74% 29.97 in 20.0 mi West 11.5 mph - N/A   Clear
11:55 PM 26.6 °F 15.7 °F 19.4 °F 74% 29.98 in 20.0 mi West 12.7 mph - N/A   Clear